CAPE
0 8 24 33 46 91 108 64 23 9 5 6 7 48 238 441 680 806 906 993 1054 1078 1102 1127 1203 1308 1374 1402 1410 1437 1486 1474 1400 1356 1304 1290 1290 1312 1355 1436 1535 1636 1740 1877 2001 2112 2208 2209 2278 2386 2452 2412 2350 2368 2476 2490 2395 2305 2240 2156 1824 976 683
0 0 1 5 20 38 56 50 12 2 0 1 2 14 117 329 536 692 804 912 1003 1047 1064 1107 1227 1284 1378 1416 1402 1410 1440 1472 1454 1442 1384 1341 1327 1327 1326 1379 1425 1513 1662 1840 1931 2034 2122 2163 2198 2255 2367 2416 2426 2496 2561 2540 2460 2336 2248 2211 1928 1093 698
0 0 0 0 0 13 33 25 12 3 0 0 2 2 58 222 412 592 715 808 911 991 1016 1058 1142 1263 1352 1414 1408 1408 1418 1444 1458 1450 1432 1397 1384 1378 1364 1359 1386 1399 1502 1742 1868 1960 2072 2117 2168 2202 2239 2303 2410 2488 2576 2563 2488 2380 2277 2236 1921 1128 756
0 0 0 0 0 0 4 18 26 6 0 0 0 0 7 128 281 467 623 728 822 902 971 1007 1098 1230 1330 1407 1431 1434 1436 1439 1450 1457 1455 1437 1404 1396 1386 1388 1373 1362 1356 1630 1838 1905 2018 2074 2151 2188 2231 2254 2362 2380 2500 2506 2453 2357 2279 2220 1930 1150 764
0 0 0 0 0 0 0 4 14 10 2 0 0 3 4 35 168 348 506 647 736 821 907 970 1032 1177 1289 1386 1448 1462 1461 1462 1460 1464 1463 1458 1422 1394 1385 1388 1382 1358 1337 1502 1777 1902 1924 2026 2101 2152 2180 2224 2270 2280 2388 2386 2365 2306 2234 2147 1832 1182 808
0 0 0 0 0 0 0 0 4 8 2 0 0 0 2 8 66 249 419 594 668 736 816 899 966 1177 1272 1350 1452 1484 1488 1484 1472 1471 1460 1458 1440 1411 1396 1399 1404 1386 1365 1369 1633 1791 1898 1958 2016 2048 2093 2122 2165 2206 2244 2220 2184 2149 2118 1921 1570 1172 928
0 0 0 0 0 0 0 0 0 2 2 0 0 0 2 1 44 157 311 466 612 676 738 833 917 1081 1282 1328 1415 1523 1500 1504 1496 1502 1474 1460 1445 1447 1426 1420 1419 1402 1393 1370 1421 1640 1796 1896 1938 1958 1957 1982 2004 2064 2104 2093 1990 1925 1845 1635 1321 1080 973
0 0 0 0 0 0 0 0 0 0 0 0 0 0 0 7 30 86 240 388 514 637 714 787 868 1047 1241 1380 1402 1467 1513 1508 1520 1511 1501 1465 1460 1471 1479 1470 1454 1423 1390 1379 1396 1486 1656 1769 1858 1862 1864 1854 1868 1924 1996 2012 1902 1737 1568 1350 1128 1030 1005
0 0 0 0 0 0 0 0 0 0 0 0 0 0 0 4 19 64 176 329 477 604 689 768 867 960 1189 1373 1463 1461 1500 1518 1530 1526 1512 1498 1481 1488 1514 1526 1518 1468 1418 1392 1398 1449 1542 1642 1723 1765 1783 1774 1792 1846 1907 1929 1852 1672 1455 1237 1080 1044 1051
0 0 0 0 0 0 0 0 0 0 0 0 0 0 0 10 31 49 108 257 440 604 695 766 866 957 1098 1290 1467 1516 1511 1525 1529 1536 1540 1531 1515 1511 1524 1556 1571 1558 1498 1442 1412 1433 1492 1540 1584 1642 1672 1681 1719 1764 1815 1834 1797 1683 1547 1383 1210 1142 1119
0 0 0 0 0 0 0 0 0 0 0 0 1 0 0 0 21 46 87 203 288 568 720 789 920 1024 1116 1208 1394 1487 1602 1570 1579 1595 1602 1591 1578 1565 1558 1566 1596 1606 1611 1558 1502 1476 1494 1518 1544 1571 1578 1609 1639 1672 1711 1752 1752 1684 1600 1506 1382 1260 1209
0 0 0 0 0 0 0 0 0 0 0 0 1 8 6 10 27 47 92 205 374 384 734 854 942 1087 1202 1236 1327 1467 1562 1616 1630 1654 1680 1679 1658 1646 1625 1625 1622 1639 1660 1662 1634 1594 1558 1547 1549 1565 1589 1611 1612 1612 1630 1645 1666 1664 1615 1550 1456 1334 1250
0 0 0 0 0 0 0 0 0 0 0 0 0 10 24 22 44 77 140 222 336 510 742 957 1060 1170 1281 1371 1404 1462 1530 1598 1665 1702 1734 1802 1765 1744 1733 1722 1720 1710 1713 1707 1714 1680 1642 1601 1568 1554 1554 1571 1585 1582 1578 1573 1571 1588 1586 1540 1463 1350 1261
0 0 0 0 0 0 0 0 0 0 0 0 2 20 36 53 88 148 198 249 338 491 743 998 1187 1270 1360 1475 1552 1582 1594 1630 1644 1734 1768 1798 1906 1897 1914 1854 1824 1811 1787 1780 1767 1749 1699 1642 1593 1580 1556 1550 1547 1556 1538 1521 1506 1528 1575 1547 1465 1374 1300
0 0 0 0 0 0 0 0 1 0 0 2 9 30 54 83 141 216 289 316 387 510 756 1066 1266 1374 1433 1542 1657 1714 1733 1750 1774 1798 1848 1904 1948 1978 1993 1988 2004 1908 1885 1869 1858 1820 1786 1723 1643 1606 1587 1584 1568 1548 1524 1506 1509 1571 1625 1584 1474 1387 1362
0 0 0 0 0 0 0 8 22 24 32 50 45 63 80 119 203 286 398 444 471 612 782 1060 1317 1444 1533 1606 1706 1779 1833 1899 1934 1950 1953 1968 1999 2035 2058 2042 2083 2004 1990 1978 1942 1912 1876 1828 1766 1704 1649 1612 1608 1609 1598 1589 1582 1632 1656 1602 1499 1423 1436
0 0 0 0 0 0 0 2 28 61 101 104 112 112 128 179 238 340 443 536 628 737 882 1092 1342 1498 1596 1688 1760 1823 1918 2001 2070 2102 2098 2096 2086 2099 2120 2126 2150 2173 2126 2068 2034 1992 1949 1913 1868 1810 1746 1688 1649 1636 1633 1646 1642 1682 1664 1609 1544 1510 1510
0 0 0 0 0 0 0 0 18 74 172 183 186 199 222 316 338 398 402 631 752 859 982 1153 1354 1509 1658 1752 1824 1916 2009 2087 2167 2210 2241 2224 2218 2202 2186 2190 2214 2241 2244 2148 2122 2080 2046 2008 1962 1914 1861 1810 1770 1714 1670 1638 1640 1656 1648 1611 1597 1588 1581
0 0 0 0 0 0 0 0 11 90 211 411 420 426 444 464 456 460 634 752 870 1016 1145 1272 1406 1564 1717 1814 1914 2027 2094 2171 2240 2295 2330 2343 2338 2309 2286 2286 2280 2232 2230 2222 2195 2172 2130 2092 2051 2021 1968 1915 1848 1801 1774 1718 1683 1657 1639 1632 1615 1608 1605
0 0 0 0 0 0 0 0 18 74 198 444 496 498 542 533 523 582 776 888 1002 1134 1319 1444 1538 1670 1789 1904 2010 2114 2196 2247 2298 2361 2396 2416 2418 2410 2398 2350 2320 2299 2291 2281 2260 2236 2214 2181 2143 2102 2062 2009 1942 1876 1817 1787 1763 1726 1689 1644 1609 1586 1578
279 631 4 0 0 0 0 0 5 41 102 410 532 592 593 588 619 788 947 1068 1173 1265 1442 1556 1683 1796 1902 2012 2114 2210 2289 2348 2381 2420 2449 2455 2467 2485 2502 2492 2422 2393 2373 2338 2330 2314 2294 2267 2230 2196 2156 2093 2018 1958 1898 1838 1764 1731 1701 1646 1600 1585 1590
1480 1459 1350 1077 450 0 0 0 12 38 84 152 476 574 635 679 731 900 1096 1192 1253 1344 1473 1635 1780 1910 2051 2159 2264 2360 2426 2474 2488 2496 2512 2510 2519 2548 2577 2542 2512 2495 2462 2423 2402 2386 2372 2352 2316 2284 2231 2182 2128 2082 2013 1907 1824 1778 1710 1650 1622 1634 1634
1414 1467 1398 1306 1346 852 159 6 261 487 428 219 338 502 670 786 854 996 1159 1270 1327 1439 1528 1661 1811 1978 2153 2295 2425 2530 2600 2620 2615 2608 2616 2605 2594 2613 2638 2582 2589 2570 2552 2515 2494 2466 2452 2444 2421 2375 2335 2292 2230 2202 2137 2022 1911 1856 1799 1752 1734 1701 1705
1645 1760 1695 1620 1592 1369 1393 907 262 450 525 532 499 480 639 861 974 1056 1180 1356 1457 1532 1620 1681 1792 1951 2158 2355 2511 2654 2737 2766 2741 2676 2670 2729 2716 2713 2699 2639 2635 2636 2612 2590 2574 2559 2542 2537 2506 2479 2429 2390 2342 2284 2237 2148 2026 1946 1891 1864 1851 1818 1808
1920 2184 2409 2242 1809 1610 1384 990 915 524 271 270 395 504 631 888 1094 1174 1244 1406 1531 1620 1670 1701 1770 1890 2078 2308 2509 2658 2789 2858 2884 2873 2848 2843 2799 2768 2738 2718 2714 2694 2657 2648 2643 2635 2627 2603 2574 2562 2523 2504 2436 2376 2295 2209 2104 2032 1984 1964 1956 1954 1937
2138 2446 2781 2836 2417 1967 1605 1210 941 1112 1023 914 837 746 708 829 1079 1247 1318 1408 1525 1609 1670 1750 1830 1915 1999 2163 2377 2570 2736 2887 2949 2968 2960 2969 2898 2870 2844 2826 2774 2754 2726 2719 2716 2724 2711 2668 2625 2607 2597 2539 2500 2432 2380 2295 2158 2100 2068 2064 2046 2050 2045
2099 2251 2729 3118 3137 2784 2467 2255 2077 1906 1845 1841 1758 1367 1197 1050 970 1163 1302 1402 1497 1602 1682 1755 1800 1877 1973 2070 2220 2387 2634 2818 2958 3007 2967 2975 2989 2975 2941 2900 2888 2852 2800 2781 2763 2749 2744 2730 2690 2658 2644 2628 2554 2486 2446 2387 2310 2234 2197 2164 2144 2149 2127
2136 2084 2233 2722 3221 3410 3368 3097 2834 2582 2386 2350 2394 2070 1568 1346 1232 1166 1230 1343 1472 1609 1672 1737 1753 1825 1912 1998 2116 2308 2494 2704 2886 2970 3014 3032 3005 3009 2986 2984 2954 2916 2881 2847 2816 2782 2765 2763 2766 2737 2723 2675 2638 2579 2511 2454 2419 2369 2358 2305 2298 2294 2278
1489 1531 1648 2042 2620 3093 3354 3434 3528 3302 2968 2749 2666 2685 2554 2082 1684 1515 1492 1465 1488 1636 1624 1684 1782 1840 1898 1966 2039 2146 2386 2590 2712 2817 2953 2990 2957 2952 2982 2989 2958 2944 2924 2894 2849 2824 2807 2839 2844 2816 2748 2665 2727 2661 2584 2519 2494 2498 2512 2480 2453 2471 2462
1463 1705 2164 2340 2592 2718 2902 3151 3324 3474 3551 3451 3190 2970 2858 2960 2767 2451 2251 2168 2089 2464 2488 2029 1789 1846 1822 1918 1973 2050 2196 2369 2565 2700 2821 2918 2966 2985 3040 3043 3004 2984 2953 2941 2912 2876 2889 2926 2914 2892 2830 2757 2746 2703 2676 2591 2553 2571 2594 2598 2588 2596 2616
1372 1664 1889 2028 2335 2580 2667 2720 2886 3060 3082 3456 3557 3661 3436 3167 3104 3036 2988 2780 2642 2754 2870 2771 2558 2484 2442 2388 2330 2307 2214 2234 2419 2592 2700 2906 2953 2980 3044 3091 3034 2957 2941 2956 2982 2992 2990 2957 2933 2906 2884 2824 2783 2729 2654 2679 2633 2656 2684 2689 2691 2710 2754
1354 1609 1758 1820 1988 2300 2504 2650 2741 2690 2787 2865 2752 2954 3320 3510 3682 3472 3377 3269 3176 3144 3116 3155 3105 3024 2964 2934 2902 2795 2688 2550 2496 2391 2502 2732 2893 2954 3011 3025 3002 2962 2986 2993 3028 3030 3014 3003 2942 2942 2931 2874 2844 2779 2752 2720 2706 2723 2736 2760 2781 2793 2864
1365 1544 1464 1510 1879 1912 2026 2223 2330 2536 2576 2602 2575 2531 2522 2523 2566 2680 2896 3256 3643 3596 3487 3395 3347 3374 3340 3292 3201 3167 3105 3062 3018 2982 2867 2725 2631 2936 2965 2976 2971 3003 3027 3016 3025 3024 3004 2986 2965 2959 2931 2931 2899 2843 2816 2785 2782 2758 2760 2795 2812 2847 2930
1613 1740 1850 1920 1787 1864 1882 1870 1879 2179 2247 2322 2324 2342 2230 2197 2160 2114 2084 2108 2220 2459 2706 3148 3536 3646 3598 3516 3451 3402 3351 3324 3249 3231 3157 3214 3107 3067 3016 2913 2940 3036 3018 2988 2962 2994 3003 2988 3008 2976 2952 2936 2934 2884 2830 2781 2884 2849 2800 2788 2823 2904 3019
1615 1742 1898 1819 1989 1866 1896 1841 1901 1806 1890 2025 2034 2082 2157 2060 1940 1878 1808 1789 1779 1808 2233 2515 2660 2878 3188 3566 3764 3734 3643 3606 3542 3488 3404 3352 3297 3242 3297 3356 3317 3167 3140 3065 2946 2923 2954 2930 2930 2941 2930 2914 2892 2923 2907 2920 2880 2863 2875 2831 2888 2950 3175
1266 1172 1226 1393 1454 1612 1667 1664 1596 1610 1641 1664 1802 1914 1882 1796 1760 1707 1608 1544 1544 1565 1592 1916 2308 2566 2778 2934 3035 3205 3461 3719 3829 3863 3836 3664 3612 3555 3439 3357 3270 3208 3204 3183 3142 3073 2932 2897 2815 2792 2930 2966 2992 2958 2999 2922 2912 2932 2853 2940 2982 3110 3284
970 963 966 989 1069 1150 1194 1294 1427 1508 1608 1692 1791 1765 1638 1452 1264 1172 1148 1162 1169 1247 1347 1352 1596 1934 1985 2167 2625 2852 3138 3234 3380 3548 3709 3856 3927 3911 3812 3684 3431 3214 3124 3178 3260 3172 3067 3072 3119 2878 2708 2813 2866 3062 3044 2909 2785 2622 2545 2594 3034 3028 3138
1002 1015 1041 1081 1130 1201 1294 1375 1416 1370 1289 1288 1258 1280 1359 1230 1026 979 978 1047 1072 1070 1076 1086 1053 1042 1004 1018 1154 1348 1558 1734 1922 2141 2323 2629 2998 3278 3405 3389 3428 3333 3142 3049 2879 2791 2868 2919 2896 2841 2947 2837 2669 2806 2471 2894 2551 2050 2179 2346 2309 2504 2870
Wind_Speed
nan nan nan nan nan nan 10 nan nan nan nan nan nan nan 11 10 9 9 8 10 11 10 11 10 9 8 7 7 8 9 9 8 8 8 9 9 10 12 12 11 10 10 11 11 11 13 14 16 13 9 7 6 5 6 8 8 8 9 11 13 15 16 17
nan nan nan nan nan nan nan nan nan nan nan nan nan nan 12 13 13 11 10 11 12 13 14 13 12 9 8 8 9 10 10 10 9 9 10 11 12 12 12 12 12 11 12 12 13 14 16 17 15 11 8 6 5 6 7 7 8 10 10 13 15 14 14
nan nan nan nan nan nan nan nan nan nan nan nan nan nan nan 14 15 14 13 12 12 13 13 14 14 13 12 11 11 10 11 11 11 10 11 12 13 13 14 14 13 14 14 14 15 14 16 18 17 12 9 6 5 6 6 7 8 10 11 13 14 13 14
nan nan nan nan nan nan nan nan nan nan nan nan nan nan nan 14 15 14 14 14 14 15 15 14 15 15 15 15 14 13 12 12 12 12 12 13 14 16 17 16 15 16 16 16 16 16 18 19 18 14 10 7 6 6 6 6 7 9 11 14 12 13 15
nan nan nan nan nan nan nan nan nan nan nan nan nan nan nan nan 17 15 15 15 15 16 15 16 16 16 16 17 17 17 15 14 14 14 14 15 17 18 17 16 17 17 17 18 20 19 19 19 17 15 12 9 7 7 5 5 6 9 11 13 12 13 15
nan nan nan nan nan nan nan nan nan nan nan nan nan nan nan nan nan 16 16 17 16 14 13 14 15 16 17 18 18 18 18 17 17 16 16 17 19 19 17 17 18 18 19 20 21 20 19 18 17 15 13 11 8 7 7 6 7 9 11 12 11 14 16
nan nan nan nan nan nan nan nan nan nan nan nan nan nan nan nan nan 16 17 17 17 16 15 15 15 17 16 18 18 19 19 19 19 18 18 18 19 18 18 19 20 20 20 22 21 22 20 18 16 14 12 13 11 9 7 7 8 9 10 10 12 13 16
nan nan nan nan nan nan nan nan nan nan nan nan nan nan nan nan nan nan 17 17 17 15 13 14 15 16 17 18 19 19 18 19 19 19 20 19 19 18 19 20 22 23 24 22 20 20 18 18 17 14 13 14 11 9 8 8 9 10 10 10 11 14 15
nan nan nan nan nan nan nan nan nan nan nan nan nan nan nan nan nan nan 18 18 17 16 13 15 16 17 18 19 18 17 18 19 19 19 19 19 19 19 20 21 23 25 24 22 21 19 18 18 17 13 13 13 12 10 9 10 11 11 10 10 12 14 15
nan nan nan nan nan nan nan nan nan nan nan nan nan nan nan nan nan nan 18 18 18 15 13 15 16 18 19 18 17 18 18 18 18 19 18 18 18 19 20 21 23 25 24 22 21 19 18 18 16 13 13 14 13 10 10 12 12 12 11 11 12 14 16
nan nan nan nan nan nan nan nan nan nan nan nan nan nan nan nan nan nan nan 19 17 13 13 15 18 19 19 18 18 18 18 17 17 17 16 17 18 19 21 21 23 23 22 22 20 19 19 17 15 13 13 14 13 11 11 12 14 14 12 11 12 14 16
nan nan nan nan nan nan nan nan nan nan nan nan nan nan nan nan nan nan nan 17 16 14 15 16 18 18 19 18 17 17 16 15 15 15 15 16 17 17 18 19 20 21 21 20 19 19 17 16 14 12 11 13 15 13 11 13 14 15 14 13 13 14 16
nan nan nan nan nan nan nan nan nan nan nan nan nan nan nan nan nan nan 15 14 14 14 16 17 19 19 18 17 17 16 16 16 15 14 15 15 15 16 16 17 19 20 19 19 19 18 16 15 13 12 13 15 16 14 13 13 15 15 14 14 15 16 17
nan nan nan nan nan nan nan nan nan nan nan nan nan nan nan nan nan 15 15 13 13 15 16 17 18 18 17 16 15 15 16 15 15 14 15 15 15 15 15 16 17 18 19 19 17 17 16 15 14 13 15 16 17 16 15 14 15 16 16 16 16 17 17
nan nan nan nan nan nan nan nan nan nan nan nan nan nan nan nan 15 15 13 12 14 16 15 18 19 18 17 15 15 16 16 15 14 13 14 15 15 15 15 16 17 18 18 18 17 16 17 17 16 16 16 18 19 18 16 14 14 16 18 18 18 18 18
nan nan nan nan nan nan nan nan nan nan nan nan nan nan nan 16 15 14 13 13 15 15 15 19 17 17 17 15 15 15 15 16 15 15 16 16 16 16 17 17 17 18 18 18 17 17 18 19 18 18 18 20 21 20 17 14 15 16 20 21 21 21 20
nan nan nan nan nan nan nan nan nan nan 25 25 23 20 18 17 14 12 11 13 15 14 16 18 17 17 16 14 13 15 16 16 17 17 18 19 18 18 20 20 19 18 18 18 18 18 19 20 19 20 21 22 22 21 18 15 15 18 22 23 25 24 23
nan nan nan nan nan nan nan nan nan nan 23 24 25 24 21 17 14 13 12 14 15 15 18 18 17 16 14 13 14 17 18 18 19 19 19 20 21 22 22 22 22 22 21 20 19 19 20 20 19 20 23 24 23 21 18 16 15 20 23 25 27 28 26
nan nan nan nan nan nan nan nan nan nan 20 23 26 25 21 19 17 15 13 15 15 19 20 17 15 14 12 13 16 18 18 19 20 20 21 22 23 24 25 25 24 24 23 23 21 21 21 20 21 22 24 25 23 20 19 17 18 22 25 26 28 30 30
nan nan nan nan nan nan nan nan nan nan 20 22 22 20 20 21 18 14 15 18 23 22 18 17 14 13 12 14 16 18 20 21 21 21 22 23 25 27 27 27 26 25 24 23 24 24 24 23 23 24 25 25 23 22 21 19 20 24 26 27 29 31 32
26 28 nan nan nan nan nan nan nan nan 23 20 18 19 24 23 18 21 26 27 25 22 21 18 17 15 14 14 15 18 21 23 23 23 23 25 27 29 28 27 26 26 25 25 25 25 24 24 23 23 24 24 24 24 23 21 23 28 28 29 30 32 34
30 31 32 30 28 nan nan nan nan nan nan 28 31 28 25 23 25 24 22 24 23 24 22 22 20 18 18 17 16 17 19 21 22 22 23 25 27 28 27 27 27 27 28 27 24 23 23 24 24 24 24 24 25 25 22 22 28 30 30 30 31 34 33
31 32 32 33 32 29 26 nan 21 22 29 31 30 29 24 30 32 28 29 27 26 26 25 26 23 21 21 19 18 17 18 19 20 21 23 24 25 25 26 27 27 27 30 29 27 26 25 24 24 23 23 24 25 25 23 24 30 32 32 31 33 35 33
35 34 37 38 37 36 35 32 29 27 27 28 26 25 30 32 33 33 31 30 31 30 29 26 21 21 22 22 22 22 22 21 21 22 23 24 23 23 24 26 28 29 33 31 30 28 26 26 25 25 25 25 24 24 25 25 33 35 33 33 36 37 34
40 40 41 42 43 42 42 39 35 33 32 30 26 26 29 31 33 32 31 32 32 30 26 22 21 25 26 25 26 28 29 27 26 25 27 27 25 25 26 27 28 30 34 32 32 30 30 30 29 27 27 26 24 25 24 27 34 36 35 36 39 38 35
43 45 45 46 48 47 47 49 51 50 44 36 31 30 29 30 29 28 28 29 31 30 25 23 26 29 28 29 33 34 34 33 31 30 31 30 31 32 32 33 33 32 31 31 33 33 33 32 32 31 29 29 27 28 27 28 33 37 37 39 41 40 37
43 44 47 50 51 48 49 52 52 49 46 39 37 32 30 29 28 26 27 30 30 26 24 27 32 34 35 37 38 38 37 36 33 32 32 33 33 34 36 38 36 35 34 32 34 35 36 34 34 34 33 33 32 30 30 31 31 37 40 41 43 41 40
45 46 48 50 52 50 48 50 51 49 47 45 42 39 33 31 30 30 31 31 28 24 26 33 36 37 39 39 38 38 38 36 35 36 37 37 38 38 37 37 38 39 38 37 37 36 36 38 39 38 37 37 36 33 32 33 31 44 43 43 43 43 41
48 49 51 52 55 56 52 50 51 50 48 46 46 44 42 38 35 34 34 31 30 35 37 37 37 39 40 39 37 37 37 37 38 39 40 41 43 42 41 42 42 41 42 43 43 42 42 43 44 43 41 42 40 37 35 36 37 43 45 44 45 43 41
47 49 52 54 56 56 56 54 52 51 50 49 49 50 49 47 45 43 41 40 40 38 39 40 40 40 39 38 37 38 38 39 40 41 41 41 42 42 42 44 45 44 45 46 49 49 49 48 47 45 43 43 41 41 40 40 42 45 47 47 45 44 43
48 50 53 56 58 57 57 57 57 56 56 55 55 54 53 52 52 51 50 44 44 45 46 44 43 44 42 40 39 39 40 41 42 42 43 45 46 46 45 44 46 47 47 50 51 51 51 50 49 46 45 44 44 45 45 45 45 51 49 52 49 45 44
50 50 51 53 55 56 56 56 58 59 60 60 59 57 56 54 54 54 48 46 45 46 47 49 48 44 43 42 42 41 42 43 43 43 45 47 49 48 48 50 53 52 51 51 50 50 50 50 48 45 46 46 46 49 50 50 50 52 54 53 52 49 46
54 53 53 53 50 50 50 52 54 57 58 58 56 55 55 55 54 51 47 45 43 43 45 49 49 48 46 43 43 43 44 44 45 45 46 48 50 50 49 51 53 52 51 51 52 50 49 49 49 47 49 50 51 54 58 58 57 57 57 57 57 56 56
56 54 54 53 51 50 50 50 51 52 52 51 50 49 50 50 50 48 46 44 41 41 41 45 47 48 48 48 48 47 47 46 45 44 47 49 51 50 49 48 48 48 48 49 50 51 51 51 51 51 51 52 56 61 64 64 63 61 60 59 60 61 63
54 53 53 54 53 53 52 49 50 50 49 48 46 47 48 49 49 48 49 47 44 44 43 45 46 46 47 48 48 49 50 49 49 49 49 50 51 49 48 48 48 48 47 47 50 51 53 54 54 55 56 60 63 62 60 62 62 60 64 65 64 67 66
55 55 55 55 54 54 54 52 50 49 48 47 47 48 50 51 52 52 51 51 50 49 51 49 49 51 51 51 51 51 51 52 54 54 52 51 51 50 48 48 49 51 52 51 49 47 49 55 57 58 64 66 64 62 63 61 63 75 75 72 71 71 72
56 55 55 55 56 55 55 54 53 52 52 50 49 51 52 53 54 55 54 54 54 54 54 54 55 55 54 53 54 53 54 55 57 57 57 56 55 54 54 52 51 55 64 63 55 55 55 55 57 68 70 71 73 71 73 80 81 80 78 77 72 72 75
58 57 56 56 56 55 55 55 55 55 54 52 54 55 55 56 56 56 55 55 56 56 57 57 57 56 55 55 54 55 56 56 57 58 59 58 56 56 56 56 57 61 71 73 61 60 67 70 76 76 76 82 86 82 79 79 81 81 79 77 73 67 70
Wind_Direction
nan nan nan nan nan nan 0 nan nan nan nan nan nan nan 307 297 299 293 303 314 327 324 319 319 318 308 325 314 306 297 297 288 278 282 278 280 282 286 292 287 288 290 289 295 305 313 312 306 307 310 299 311 311 305 314 330 344 345 344 345 342 343 348
nan nan nan nan nan nan nan nan nan nan nan nan nan nan 294 301 300 306 315 315 321 322 315 314 310 302 303 296 283 294 298 298 291 273 271 272 274 280 289 291 292 293 294 298 302 302 299 305 306 303 301 300 306 306 320 330 343 341 340 339 341 343 347
nan nan nan nan nan nan nan nan nan nan nan nan nan nan nan 301 305 316 309 304 309 309 303 310 314 309 294 285 279 287 290 288 287 286 284 283 287 288 282 285 287 289 296 295 294 298 295 296 299 297 288 291 293 302 323 337 335 337 340 335 340 347 352
nan nan nan nan nan nan nan nan nan nan nan nan nan nan nan 303 299 298 295 298 303 301 308 309 305 300 291 288 284 279 282 284 288 287 285 279 279 277 278 281 282 283 285 295 297 295 291 293 299 292 289 275 277 292 318 338 322 331 334 331 341 349 354
nan nan nan nan nan nan nan nan nan nan nan nan nan nan nan nan 291 283 281 287 295 307 317 313 299 295 287 288 278 273 278 280 276 273 273 274 275 275 281 286 285 288 293 291 290 292 290 290 296 291 278 270 273 284 300 303 316 318 323 329 342 345 352
nan nan nan nan nan nan nan nan nan nan nan nan nan nan nan nan nan 284 287 291 295 300 298 294 297 298 299 298 289 280 273 270 268 269 270 274 277 280 285 285 285 288 288 291 292 295 292 286 291 292 274 269 279 289 273 285 297 308 318 326 344 346 349
nan nan nan nan nan nan nan nan nan nan nan nan nan nan nan nan nan 284 283 289 298 303 306 309 313 309 305 294 289 285 283 278 273 273 269 272 277 282 285 283 285 286 286 284 291 291 289 287 291 290 276 265 273 280 289 297 300 302 312 328 347 350 354
nan nan nan nan nan nan nan nan nan nan nan nan nan nan nan nan nan nan 278 286 294 298 300 312 311 308 303 292 286 289 284 278 273 272 271 278 280 284 284 283 285 285 283 289 291 289 290 290 287 282 270 264 279 285 288 294 302 300 307 326 344 356 350
nan nan nan nan nan nan nan nan nan nan nan nan nan nan nan nan nan nan 286 289 288 298 311 315 314 306 295 291 289 293 285 278 276 275 279 283 281 283 283 280 281 281 285 287 284 282 283 286 287 279 263 266 277 284 284 292 299 301 314 332 348 357 353
nan nan nan nan nan nan nan nan nan nan nan nan nan nan nan nan nan nan 281 286 289 305 316 307 298 293 292 294 297 295 288 287 283 285 285 286 283 287 282 279 277 278 284 285 279 281 278 281 283 270 259 268 280 282 280 288 294 299 311 335 345 352 353
nan nan nan nan nan nan nan nan nan nan nan nan nan nan nan nan nan nan nan 284 295 303 303 294 288 292 300 303 305 300 299 301 294 294 297 295 284 284 278 277 276 277 282 281 281 279 277 277 275 264 257 267 281 278 277 287 294 300 312 326 335 342 341
nan nan nan nan nan nan nan nan nan nan nan nan nan nan nan nan nan nan nan 289 297 297 284 287 287 297 301 304 308 309 314 311 306 309 306 298 291 290 285 283 281 280 275 281 283 281 280 282 273 263 261 268 278 277 275 282 290 299 311 318 326 330 331
nan nan nan nan nan nan nan nan nan nan nan nan nan nan nan nan nan nan 280 289 291 281 278 283 288 295 301 310 319 319 325 323 323 311 303 300 297 291 291 290 283 281 282 279 279 280 282 284 278 260 258 268 275 276 273 279 288 294 303 313 319 324 328
nan nan nan nan nan nan nan nan nan nan nan nan nan nan nan nan nan 286 287 290 280 271 270 272 285 292 301 311 323 332 339 335 326 317 312 305 305 307 307 303 302 299 290 284 288 287 293 286 278 264 260 270 277 274 268 275 284 290 299 307 313 317 324
nan nan nan nan nan nan nan nan nan nan nan nan nan nan nan nan 277 270 267 266 262 264 274 278 284 293 301 310 328 341 339 329 324 322 317 316 315 316 315 311 308 305 301 299 295 290 294 287 276 269 271 274 277 274 270 274 282 285 294 303 311 313 322
nan nan nan nan nan nan nan nan nan nan nan nan nan nan nan 279 277 279 281 278 274 273 275 275 286 293 298 313 335 334 324 322 323 324 324 326 327 324 321 316 311 310 313 313 308 300 295 286 281 279 284 286 282 276 272 273 272 290 312 311 308 313 319
nan nan nan nan nan nan nan nan nan nan 264 274 279 283 286 287 287 285 289 280 277 281 279 284 290 294 302 321 328 314 310 314 321 321 328 331 328 325 325 323 317 317 318 315 310 307 299 290 289 287 288 291 287 281 274 272 273 301 306 316 321 315 318
nan nan nan nan nan nan nan nan nan nan 268 287 294 290 285 285 281 274 277 277 281 283 279 285 291 299 309 319 302 299 309 313 314 318 324 322 326 324 320 317 321 326 328 323 318 305 296 297 297 291 289 287 284 282 277 273 283 297 305 314 321 321 318
nan nan nan nan nan nan nan nan nan nan 271 290 299 292 291 292 281 276 281 282 287 274 278 289 296 301 305 295 291 299 303 303 306 313 314 318 318 313 309 313 320 325 327 331 324 311 309 304 293 289 289 290 290 284 279 272 283 295 305 314 319 325 322
nan nan nan nan nan nan nan nan nan nan 259 280 292 294 292 287 285 275 269 270 261 268 278 284 287 291 294 285 289 294 295 296 301 307 310 307 304 304 307 312 319 320 317 315 316 322 322 313 305 295 292 294 292 283 275 275 282 296 303 312 318 322 320
219 221 nan nan nan nan nan nan nan nan 239 249 258 259 265 270 268 248 241 247 258 266 273 276 278 279 279 283 287 284 285 292 298 303 301 298 297 300 305 310 310 311 310 308 312 316 318 315 308 301 298 295 286 277 274 273 288 292 303 309 315 318 314
215 216 218 222 227 nan nan nan nan nan nan 236 233 238 251 260 259 259 256 250 255 260 266 271 271 271 266 269 277 284 286 290 294 293 289 290 290 294 299 302 305 306 301 300 300 302 304 307 308 310 306 299 287 279 278 277 286 292 300 307 309 311 301
217 216 216 216 223 229 232 nan 239 243 241 241 244 247 250 248 252 255 250 246 243 246 250 254 257 259 265 271 275 277 275 277 282 283 283 283 285 291 295 297 297 293 287 292 297 299 301 305 305 299 296 294 287 283 277 273 282 291 296 301 304 295 296
219 219 218 216 219 227 234 236 233 235 242 247 251 252 248 252 258 262 262 256 250 250 251 256 260 262 266 269 269 269 269 271 273 276 278 278 285 290 289 288 284 286 284 288 291 294 296 293 291 289 287 290 291 289 278 273 276 287 291 297 298 297 294
220 217 218 219 220 220 225 232 240 246 250 252 252 246 250 256 265 269 270 269 270 272 276 281 278 267 264 267 269 269 269 270 272 273 274 277 281 278 277 276 276 274 274 277 278 282 284 285 286 286 284 287 288 284 281 268 270 282 287 292 294 295 289
221 219 219 221 223 224 227 232 240 241 243 243 239 242 251 259 266 270 269 269 271 279 290 293 281 269 263 258 257 260 264 266 271 273 277 285 290 286 284 279 273 271 270 270 271 274 276 280 282 286 285 281 281 274 274 270 266 273 285 287 291 297 288
227 226 224 224 225 226 232 235 239 241 240 237 232 238 251 257 258 259 257 260 268 284 296 293 283 275 266 260 259 259 262 264 271 275 278 284 289 288 284 284 287 286 280 273 266 265 266 270 271 274 277 277 277 275 274 270 268 268 280 283 289 293 291
229 230 228 227 228 230 232 235 237 238 237 236 235 235 241 254 263 259 259 263 273 282 272 263 266 270 274 277 278 275 272 277 285 289 287 286 283 285 291 291 288 288 291 283 275 275 275 270 266 265 266 267 270 271 272 271 275 263 274 281 286 290 294
229 228 227 227 227 228 231 234 235 234 235 236 236 237 239 244 252 257 263 269 265 257 259 266 272 276 280 284 287 288 288 288 294 294 290 291 294 298 301 297 293 293 293 292 288 285 282 275 268 264 263 261 260 262 266 267 265 270 268 277 283 288 289
232 229 229 230 230 230 231 234 234 234 234 236 238 239 240 244 248 251 255 255 250 254 260 270 276 278 281 283 285 287 287 288 290 290 289 290 291 292 294 293 294 294 292 291 289 286 284 278 270 264 265 266 263 263 264 264 263 267 273 272 281 281 286
231 229 229 230 231 232 234 235 236 236 237 237 238 240 243 245 247 248 249 250 253 256 257 259 268 274 276 277 277 279 281 282 283 286 288 289 291 290 289 288 287 285 284 283 283 281 281 280 274 269 268 268 267 266 264 262 262 258 265 273 276 280 282
231 231 232 233 234 235 237 239 240 241 241 241 242 243 244 246 248 250 251 252 255 258 260 261 262 267 271 274 276 277 277 279 280 282 286 288 287 288 287 285 283 281 277 277 278 278 277 278 278 276 272 271 269 267 264 261 259 258 258 261 266 269 275
231 230 231 232 233 236 238 239 240 240 240 241 243 246 248 250 252 253 253 254 257 261 266 268 267 267 268 270 270 271 275 280 282 283 284 285 285 285 284 283 282 282 281 280 281 281 277 277 280 280 276 274 271 267 265 261 256 255 256 257 258 258 260
229 229 230 231 229 230 233 236 238 239 241 243 244 246 248 251 253 254 256 257 258 259 260 264 267 268 267 266 265 266 267 270 270 272 274 277 281 282 282 283 283 282 281 281 281 280 278 278 277 275 273 271 268 265 264 264 260 257 256 256 256 257 258
230 230 231 231 231 231 234 236 237 238 239 240 242 244 246 248 250 251 253 257 259 260 262 263 264 265 265 265 264 265 265 266 267 269 270 271 273 276 278 281 282 282 281 281 279 278 277 275 272 269 266 265 264 264 265 266 267 265 263 263 260 259 257
235 235 234 234 234 236 237 237 239 241 242 242 243 245 247 248 249 251 254 256 258 261 262 262 261 259 258 259 260 261 263 264 265 265 266 268 270 271 271 268 268 267 273 276 279 278 276 272 269 269 267 266 265 265 266 267 264 265 268 268 264 258 259
241 239 237 236 238 239 240 240 243 246 248 249 250 252 253 253 253 253 254 255 257 259 261 261 261 261 260 259 259 259 261 263 264 265 265 266 265 266 266 265 267 268 258 255 261 274 277 276 272 271 271 271 268 260 254 253 259 268 271 272 267 263 261
245 245 243 240 241 243 245 244 246 249 252 254 256 257 257 257 255 256 256 257 258 260 260 261 262 262 262 262 262 261 261 262 263 263 263 262 264 266 266 267 265 262 259 254 257 275 279 278 274 274 270 268 266 263 259 263 266 268 272 276 277 272 267